This demonstration page uses our WeatherBlox Daily Observations layout. Learn more.

Left ArrowRight Arrow

38.80484, -77.04692

Hourly Observations for February 10, 2021

Temp ( °F °C ) Dew Point ( °F °C ) Humidity (%) Winds ( mph kmh ) Pressure ( in mb ) Visibility ( mi km ) Precip ( " mm )
12:52 am 00:52 Mostly Cloudy 37 2.8 27 -2.8 67 67 VRB 5 7 30.27 1025 10 16 0.00 0.00
1:52 am 01:52 Partly Cloudy 38 3.3 26 -3.3 62 62 NNW 3 6 30.27 1025 10 16 0.00 0.00
2:52 am 02:52 Mostly Cloudy 34 1.1 26 -3.3 73 73 N 10 17 30.29 1026 10 16 0.00 0.00
3:52 am 03:52 Mostly Cloudy 35 1.7 26 -3.3 70 70 N 9 15 30.29 1026 10 16 0.00 0.00
4:52 am 04:52 Mostly Cloudy 35 1.7 26 -3.3 70 70 NNW 7 11 30.31 1027 10 16 0.00 0.00
5:52 am 05:52 Cloudy 35 1.7 26 -3.3 70 70 N 5 7 30.34 1027 10 16 0.00 0.00
6:52 am 06:52 Cloudy 35 1.7 26 -3.3 70 70 NNE 9 15 30.35 1028 10 16 0.00 0.00
7:52 am 07:52 Cloudy 35 1.7 27 -2.8 72 72 N 7 11 30.37 1028 10 16 0.00 0.00
8:52 am 08:52 Cloudy 37 2.8 27 -2.8 67 67 NE 7 11 30.39 1029 10 16 0.00 0.00
9:52 am 09:52 Cloudy 39 3.9 26 -3.3 60 60 ENE 8 13 30.39 1029 10 16 0.00 0.00
10:52 am 10:52 Mostly Cloudy 41 5 25 -3.9 53 53 ENE 6 9 30.38 1029 10 16 0.00 0.00
11:52 am 11:52 Cloudy 41 5 25 -3.9 53 53 SE 3 6 30.36 1028 10 16 0.00 0.00
12:52 pm 12:52 Cloudy 42 5.6 26 -3.3 53 53 VRB 3 6 30.33 1027 10 16 0.00 0.00
1:52 pm 13:52 Cloudy 42 5.6 26 -3.3 53 53 SE 3 6 30.32 1027 10 16 0.00 0.00
2:52 pm 14:52 Cloudy 42 5.6 26 -3.3 53 53 SE 3 6 30.31 1026 10 16 0.00 0.00
3:52 pm 15:52 Cloudy 41 5 28 -2.2 60 60 undefined N/A 30.29 1026 10 16 0.00 0.00
4:27 pm 16:27 Cloudy with Light Rain 39 3.9 32 0 76 76 SSE 10 17 30.29 1026 10 16 0.00 0.00
4:52 pm 16:52 Cloudy with Light Rain 37 2.8 33 0.6 86 86 SSE 9 15 30.31 1026 4 6 0.01 0.25
4:59 pm 16:59 Cloudy with Light Snow 36 2.2 33 0.6 89 89 SSE 9 15 30.31 1027 3 4 0.00 0.00
5:05 pm 17:05 Cloudy with Light Snow 36 2.2 33 0.6 89 89 SSE 8 13 30.30 1026 3 4 0.01 0.25
5:09 pm 17:09 Cloudy with Light Snow 36 2.2 33 0.6 89 89 SSE 8 13 30.30 1026 3 4 0.01 0.25
5:12 pm 17:12 Cloudy with Light Snow 36 2.2 33 0.6 89 89 SSE 8 13 30.30 1026 2 3 0.01 0.25
5:20 pm 17:20 Cloudy with Light Snow 35 1.7 33 0.6 93 93 SSE 7 11 30.29 1026 2 3 0.02 0.51
5:22 pm 17:22 Cloudy with Light Snow 35 1.7 33 0.6 93 93 SSE 8 13 30.29 1026 2 3 0.02 0.51
5:37 pm 17:37 Cloudy with Light Snow 35 1.7 33 0.6 93 93 SSE 6 9 30.30 1026 2 3 0.03 0.76
6:21 pm 18:21 Cloudy with Light Snow 35 1.7 32 0 89 89 SSE 8 13 30.29 1026 3 4 0.00 0.00
6:24 pm 18:24 Cloudy with Light Snow 35 1.7 32 0 89 89 SSE 7 11 30.29 1026 3 5 0.00 0.00
6:41 pm 18:41 Cloudy with Light Snow 34 1.1 32 0 92 92 SSE 7 11 30.29 1026 3 4 0.02 0.51
6:46 pm 18:46 Cloudy with Light Snow 34 1 32 0 93 93 SSE 7 11 30.29 1026 3 4 0.02 0.51
6:52 pm 18:52 Cloudy with Light Snow 34 1.1 32 0 92 92 SSE 8 13 30.27 1025 2 3 0.03 0.76
7:33 pm 19:33 Cloudy with Light Snow 34 1.1 32 0 92 92 SSE 3 6 30.30 1026 3 5 0.01 0.25
7:41 pm 19:41 Cloudy with Light Wintry Mix 34 1.1 32 0 92 92 SSE 5 7 30.29 1026 3 5 0.01 0.25
7:52 pm 19:52 Cloudy with Light Rain/Snow 34 1.1 32 0 92 92 SSE 5 7 30.29 1026 4 6 0.01 0.25
8:01 pm 20:01 Cloudy with Light Rain 34 1.1 32 0 92 92 SSE 5 7 30.30 1026 5 8 0.01 0.25
8:10 pm 20:10 Cloudy with Drizzle 34 1.1 32 0 92 92 SSE 5 7 30.29 1026 5 8 0.01 0.25
8:49 pm 20:49 Cloudy with Drizzle 34 1 32 0 93 93 ESE 3 6 30.26 1025 5 8 0.02 0.51
8:52 pm 20:52 Cloudy with Drizzle 34 1.1 32 0 92 92 SE 5 7 30.26 1025 5 8 0.02 0.51
8:59 pm 20:59 Cloudy with Drizzle 35 1.7 32 0 89 89 Calm 30.27 1025 5 8 0.00 0.00
9:32 pm 21:32 Cloudy with Drizzle 35 1.7 33 0.6 93 93 Calm 30.26 1025 5 8 0.00 0.00
9:52 pm 21:52 Cloudy with Light Rain 35 1.7 32 0 89 89 E 3 6 30.26 1025 5 8 0.00 0.00
9:55 pm 21:55 Cloudy with Light Rain 35 1.7 32 0 89 89 E 6 9 30.25 1024 5 8 0.00 0.00
10:43 pm 22:43 Cloudy with Light Rain 35 1.7 33 0.6 93 93 SSE 6 9 30.24 1024 4 6 0.05 1.27
10:46 pm 22:46 Cloudy with Mist and Fog 36 2 34 1 93 93 SE 6 9 30.24 1024 4 6 0.05 1.27
10:52 pm 22:52 Cloudy with Mist and Fog 35 1.7 33 0.6 93 93 SE 6 9 30.23 1024 3 5 0.06 1.52
11:00 pm 23:00 Cloudy with Mist and Fog 35 1.7 33 0.6 93 93 SE 3 6 30.24 1024 4 6 0.01 0.25
11:52 pm 23:52 Cloudy with Mist and Fog 35 1.7 33 0.6 93 93 ESE 5 7 30.23 1024 4 6 0.05 1.27

Powered by AerisWeather